User: anonymous   Login
Location: Bathurst
(33.4193°S, 149.5775°E)
Time: 21:10:59
(UTC+10:00)
Language:

Vanguard 1 Rocket - Orbit

View from above orbital plane
View from above orbital plane
View from above satellite
View from above satellite

Ground track
Ground track

The orbit data is extracted from the following two-line orbital elements,

1 00016U 58002A   21163.36912495  .00000065  00000-0  78461-4 0  9995
2 00016  34.2689 195.5845 2027226 315.1622  30.1651 10.48731447496621
Epoch (UTC): 12 June 2021 08:51:32
Eccentricity: 0.2027226
inclination: 34.2689°
perigee height: 651 km
apogee height: 4225 km
right ascension of ascending node: 195.5845°
argument of perigee: 315.1622°
revolutions per day: 10.48731447
mean anomaly at epoch: 30.1651°
orbit number at epoch: 49662

The dashed part of the orbit path shows where the satellite is in the earth's shadow,  

DLR